sat.trackr.live / text

‹ back to catalog

YAOGAN-30 04A

NORAD 43081 · 2017-085A

PAYLOAD ACTIVE UNKNOWN

§ Identity

Operator
Country
PRC
Launch date
2017-12-25
Launch site
XICLF
Launch vehicle
Mass (kg)
RCS (m²)

External: N2YO · Heavens-Above · Gunter

§ Orbital elements

Epoch: 2026-05-25T02:20:17.081952Z

Period
95.84 min
Inclination
34.9962°
Eccentricity
0.0005483
Mean motion
15.02569650 rev/d
Perigee alt
555.2 km
Apogee alt
562.8 km
Semi-major
6,937.1 km
B*
1.7600e-4
RAAN
290.7741°
Arg perigee
305.5994°
Mean anomaly
54.4203°
Rev number
45,924

§ Raw data

YAOGAN-30 04A1 43081U 17085A   26145.09741993  .00002361  00000+0  17600-3 0  99952 43081  34.9962 290.7741 0005483 305.5994  54.4203 15.02569650459247

JSON: /api/v1/satellites/43081 · /tle

For live sub-satellite position, see the globe view (requires WebGL).

§ Visibility from observer

Set your observer location to see the next 7 days of passes ≥ 10°. The values pass through the URL so the page stays shareable.

No JS? Fill the form by hand. The geolocation button needs JavaScript.